Location: *
(31.3389°N, 121.2197°E)
Time: 14:25:49
(UTC+00:00)

Daily predictions for brighter satellites

Satellite Brightness Start Highest point End
(mag) Time Altitude Azimuth Time Altitude Azimuth Time Altitude Azimuth
STARLINK-1101 3.5 12:00:23 10° NW 12:04:31 77° SW 12:04:38 76° SSW
Cosmos 1023 Rocket 4.3 12:01:43 10° S 12:06:53 72° ESE 12:12:02 10° NNE
STARLINK-1102 3.7 12:05:21 10° NW 12:09:24 68° SW 12:09:24 68° SW
MetOp-A 4.0 12:10:59 60° SE 12:11:54 75° ENE 12:17:14 10° N
Cosmos 2184 Rocket 4.1 12:05:50 10° N 12:12:05 77° W 12:16:18 22° S
ARGOS 3.8 12:09:08 16° S 12:13:19 54° W 12:18:36 10° NNW
Cosmos 1656 Rocket 3.7 12:08:27 10° N 12:13:59 56° ENE 12:14:01 56° ENE
STARLINK-1111 4.0 12:10:21 10° NW 12:14:11 58° WSW 12:14:11 58° WSW
CZ-2C R/B 2.4 12:10:37 10° NNE 12:15:48 89° WNW 12:18:28 30° SSW
USA 234 3.6 12:11:23 10° NE 12:17:50 66° NW 12:24:18 10° SW
STARLINK-1073 4.3 12:15:22 10° NW 12:18:58 50° WSW 12:18:58 50° WSW
ATLAS 2AS CENTAUR R/B 3.3 12:12:47 10° NNW 12:19:38 39° NE 12:20:10 39° ENE
Delta 128 4.4 12:16:55 10° W 12:21:12 47° SSW 12:21:12 47° SSW
Resurs 1-3 4.2 12:26:05 53° NNW 12:26:05 53° NNW 12:29:27 10° NNW
Cosmos 2154 Rocket 4.0 12:27:58 10° N 12:34:19 82° W 12:35:31 61° SSW
Cosmos 1140 Rocket 4.5 12:43:14 10° SW 12:48:09 44° WNW 12:53:06 10° N
ATLAS 5 CENTAUR R/B 3.5 12:45:38 10° WSW 12:49:02 25° NW 12:52:42 10° N
Resurs 01 Rocket 3.4 12:51:27 28° NNW 12:51:27 28° NNW 12:53:38 10° NNW
BREEZE-M DEB (TANK) 4.3 12:32:25 10° NW 12:55:16 85° SW 12:55:58 76° SSE
ATLAS 5 CENTAUR R/B 3.8 12:56:55 10° WSW 13:04:04 51° SSE 13:04:06 51° SSE
COSMOS 2455 4.2 13:00:50 10° N 13:04:01 29° N 13:04:01 29° N
Cosmos 2369 Rocket 4.4 13:06:13 10° WNW 13:09:50 17° W 13:11:32 15° WSW
ATLAS 2AS CENTAUR R/B 4.4 14:04:03 10° NW 14:07:37 26° WNW 14:07:37 26° WNW
Cosmos 2297 Rocket 4.1 18:18:37 26° NE 18:18:37 26° NE 18:21:03 10° NNE
ATLAS 3B R/B 4.5 18:27:33 19° ESE 18:28:32 20° ESE 18:33:06 10° ENE
VEP-3 4.2 18:31:18 48° SSE 18:31:21 48° SSE 18:54:57 10° E
USA 267 4.1 18:26:23 10° NNE 18:30:56 43° N 18:30:56 43° N
Cosmos 2227 Rocket 3.5 18:44:04 36° NNE 18:44:04 36° NNE 18:47:18 10° NNE
USA 238 DEB 4.1 18:48:24 53° N 18:48:24 53° N 18:53:37 10° NNE
USA 238 4.1 18:48:28 54° N 18:48:28 54° N 18:53:43 10° NNE
CZ-4B R/B 4.3 19:09:42 17° ENE 19:10:01 17° ENE 19:12:22 10° NNE
NOSS 3-2 (A) 4.1 19:13:51 39° NNW 19:13:51 39° NNW 19:18:30 10° NNE
Cosmos 2082 3.8 19:17:52 71° N 19:17:52 71° N 19:23:00 10° NNE
ADEOS II 4.2 19:16:50 10° NNW 19:17:55 15° NNW 19:17:55 15° NNW
SL-16 R/B 4.1 19:16:26 10° N 19:21:19 29° ENE 19:26:10 10° ESE
Meteor 1-19 Rocket 4.2 19:23:11 71° NNW 19:23:11 71° NNW 19:28:14 10° N
CENTAUR R/B 2.2 19:23:28 79° WNW 19:23:28 79° WNW 19:29:57 10° NNE
ATLAS 5 CENTAUR R/B 3.6 19:23:17 28° S 19:26:23 42° SE 19:29:46 10° ENE
Cosmos 1125 Rocket 3.9 19:28:00 53° NNW 19:28:00 53° NNW 19:32:20 10° N
PSLV R/B 4.2 19:23:04 10° NNE 19:27:20 51° E 19:27:31 50° ESE
STARLINK-1050 4.4 19:33:46 49° NNE 19:33:46 49° NNE 19:36:52 10° NE
Gblst 52 Del rocket 4.1 19:30:56 42° NW 19:33:03 89° NE 19:38:38 10° SE
Skynet4D Del rocket 4.3 19:34:49 50° SSW 19:35:18 51° S 19:42:35 10° ESE
Geosat 3.8 19:31:46 10° NNE 19:36:49 89° ESE 19:37:17 74° SSW
STARLINK-1055 4.2 19:38:33 52° NNE 19:38:33 52° NNE 19:41:50 10° NE
Delta 142 4.3 19:37:51 51° S 19:37:59 51° S 19:42:43 10° E
IDEFIX/ARIANE 42P 2.7 19:33:59 10° N 19:38:41 57° NW 19:38:41 57° NW
STARLINK-1022 4.1 19:43:21 54° N 19:43:21 54° N 19:46:48 10° NE
NOSS 3-2 (C) 3.7 19:42:35 43° WNW 19:42:48 43° NW 19:48:40 10° NNE
ASTRO E2 4.1 19:44:59 29° SE 19:44:59 29° SE 19:47:12 10° ESE
COBE Rocket 3.7 19:46:02 70° WSW 19:46:12 71° W 19:50:57 10° NNW
Cosmos 2237 Rocket 2.7 19:40:53 10° NNW 19:53:14 - S 19:44:52 41° WNW
STARLINK-1042 4.0 19:48:07 52° NNW 19:48:07 52° NNW 19:51:44 10° NE
STARLINK-1056 4.0 19:52:52 49° NNW 19:52:52 49° NNW 19:56:39 10° NNE
MSX 3.8 19:48:25 10° N 19:54:08 67° WNW 19:56:21 38° SW
Cosmos 2263 Rocket 3.5 19:49:40 10° S 19:54:49 38° ESE 20:00:01 10° NE
CBERS 1 LM4 rocket 4.4 19:50:07 10° N 19:55:03 68° WNW 19:56:31 45° SW
Cosmos 468 4.4 19:50:09 10° NNW 19:55:27 69° WSW 20:00:43 10° S
STARLINK-1054 4.1 19:57:38 45° NW 19:57:38 45° NW 20:01:34 10° NNE
Cosmos 2297 Rocket 3.9 20:00:26 17° NW 20:00:26 17° NW 20:03:28 10° NNW
Meteor 2-4 Rocket 3.8 19:57:49 37° SW 20:00:02 59° W 20:05:52 10° N
STARLINK-1062 4.2 20:02:25 40° NW 20:02:35 40° NW 20:06:30 10° NNE
ADEOS 3.5 19:57:55 10° NNE 20:03:09 88° WNW 20:06:55 19° SSW
Shenzhou-11 Module 4.4 20:05:44 12° SE 20:05:47 12° SE 20:06:57 10° ESE
STARLINK-1053 4.4 20:07:14 35° NW 20:07:37 36° NW 20:11:28 10° NNE
Chunghua 1 4.3 20:08:27 63° SW 20:08:37 64° SSW 20:12:15 10° ESE
Meteor 2-9 Rocket 4.4 20:04:39 10° NNW 20:10:20 52° W 20:15:57 10° SSW
STARLINK-52 2.8 20:12:25 57° NW 20:13:00 86° SW 20:16:11 10° SE
Cosmos 1092 Rocket 4.0 20:08:20 10° S 20:14:41 86° E 20:21:02 10° N
H-2A R/B 4.1 20:12:30 10° NE 20:16:06 32° E 20:19:34 10° SSE
Meteor 1-4 Rocket 2.7 20:15:51 42° SW 20:16:44 55° W 20:20:26 10° N
ATLAS 3B R/B 2.7 20:14:51 26° SW 20:18:39 58° WNW 20:25:12 10° NNE
Cosmos 1674 Rocket 3.4 20:16:34 16° SSW 20:20:06 72° W 20:24:29 10° N
Cosmos 2227 4.1 20:18:50 12° SSW 20:24:08 88° WNW 20:29:47 10° NNE
EPKM 3.7 20:24:39 17° SSW 20:25:06 18° S 20:26:50 10° SE
SWIFT 4.1 20:24:58 17° SSW 20:26:10 19° S 20:29:10 10° SE
Cosmos 2227 Rocket 4.2 20:25:54 11° WNW 20:26:20 11° NW 20:27:50 10° NW
Cosmos 2026 Rocket 4.1 20:22:38 10° S 20:28:46 80° E 20:34:52 10° N
PAYLOAD A 4.5 20:25:19 10° N 20:30:23 44° WNW 20:34:23 15° SW
Nadezhda 4 Rocket 4.4 20:26:18 15° SW 20:31:02 40° W 20:36:57 10° N
Cosmos 1818 4.5 20:26:44 10° NNW 20:32:03 52° ENE 20:37:18 10° SE
Cosmos 1689 Rocket 2.2 20:30:44 10° S 20:33:39 50° W 20:36:35 10° NNW
CZ-2C R/B 2.6 20:30:35 10° N 20:34:54 43° WNW 20:38:38 13° SW
Cosmos 1867 3.7 20:33:51 16° SW 20:38:08 59° WNW 20:43:32 10° NNE
Meteor 1-31 Rocket 2.7 20:34:26 10° N 20:38:22 80° WNW 20:42:16 10° SSW
Gbstr 26 Del rocket 3.7 20:33:21 15° SW 20:38:56 89° WNW 20:44:14 10° NE
Cosmos 1428 Rocket 4.5 20:33:57 10° S 20:40:04 89° E 20:46:14 10° N
CZ-4B R/B 3.1 20:42:54 17° W 20:42:54 17° W 20:44:37 10° NW
PSLV R/B 4.0 20:38:06 10° SSE 20:42:18 88° E 20:46:32 10° NNW
ALOS 3.0 20:39:04 10° NNE 20:43:40 57° E 20:48:14 10° S
USA 234 3.4 20:38:23 10° SE 20:44:55 82° NE 20:51:28 10° NW
SeaSat 1 2.5 20:40:21 10° SSE 20:45:16 84° ENE 20:50:13 10° NNW
CZ-4B R/B 3.8 20:44:44 10° N 20:48:32 57° WNW 20:52:09 10° SSW
Okean 2 Rocket 4.2 20:45:31 10° NW 20:49:04 23° W 20:52:39 10° SW
Cosmos 494 Rocket 4.4 20:44:50 10° NW 20:49:42 38° W 20:54:31 10° SSW
Cosmos 1300 Rocket 4.4 20:46:03 10° NNW 20:49:42 27° W 20:53:20 10° SSW
Cosmos 2151 Rocket 4.2 20:46:07 10° NNW 20:50:05 34° W 20:54:02 10° SSW
Cosmos 1269 Rocket 4.2 20:52:21 10° NNW 20:57:28 49° WSW 21:02:33 10° S
METEOR-M 4.4 20:52:40 10° NNE 20:58:01 77° ESE 21:03:21 10° S
Cosmos 1378 Rocket 4.3 20:56:25 10° SW 21:00:13 30° W 21:04:05 10° NNW
FENGYUN 3A 3.7 20:55:49 10° NNE 21:01:13 87° ESE 21:06:35 10° SSW
SL-16 R/B 2.9 21:00:27 10° NW 21:05:17 30° WSW 21:10:07 10° SSW
Aureole 3 Rocket 3.5 21:03:47 10° N 21:07:48 54° E 21:11:00 10° SSE
Cosmos 1766 4.2 21:04:50 10° N 21:08:37 52° E 21:12:23 10° SSE
Meteor 1-15 Rocket 4.2 21:03:55 10° NNW 21:09:27 63° W 21:15:02 10° S
Meteor PRIRODA 3.8 21:07:11 10° N 21:10:46 53° WNW 21:14:20 10° SSW
CZ-4B R/B 3.5 21:06:43 10° N 21:10:51 44° WNW 21:15:06 10° SW
Cosmos 1553 Rocket 4.4 21:04:42 10° N 21:11:01 73° E 21:17:23 10° SSE
CENTAUR R/B 4.3 21:12:39 10° WNW 21:15:23 13° NW 21:18:18 10° NNW
Centaur D-1A AC-31 4.2 13:10:11 10° SSW 22:25:27 70° S 22:31:56 10° E
